Location: Peebles
(55.6412°N, 3.1714°W)
Time: 08:57:39
(UTC+01:00)

FENGYUN 1C DEB - Pass Details

Date: 09 July 2022
Orbit: 749 x 887 km, 98.1° (Epoch: 08 August)

Event Time Altitude Azimuth Distance (km) Brightness Sun altitude
Rises 02:57:57 0° 14° (NNE) 3,507 ? -9.1°
Reaches altitude 10° 03:00:23 10° 13° (NNE) 2,558 ? -9.0°
Maximum altitude 03:06:06 76° 290° (WNW) 904 ? -8.7°
Enters shadow 03:11:35 10° 205° (SSW) 2,466 ? -8.3°
